Weather observations for the past three days for
Miami, Kendall-Tamiami Executive Airport
Imperial (Metric)
Date Time (edt) Wind (mph) Vis. (mi.) Weather Sky Cond. Temperature (ºF) Relative Humidity Wind Chill (°F) Heat Index (°F) Pressure Precipitation (in)
Air Dwpt 6 hour altimeter (in) sea level (mb) 1 hr 3 hr 6 hr
Max. Min.
14 20:53 E 7 10.00 Fair CLR 82.9 77 82% 92 30.09 1018.9
14 19:53 E 13 10.00 Fair CLR 84.9 75.9 93 82.9 75% 94 30.07 1018.2 0.05
14 18:53 E 14 10.00 Fair CLR 86 73.9 67% 94 30.06 1017.7
14 17:53 E 15 10.00 Fair CLR 89.1 75 63% 99 30.06 1017.7
14 16:53 E 15 10.00 Fair CLR 90 75 62% 100 30.07 1018.0 0.05
14 15:53 E 17 10.00 A Few Clouds FEW032 89.1 78.1 70% 103 30.09 1018.7 0.05
14 14:53 E 15 10.00 Partly Cloudy FEW030 SCT036 91.9 78.1 64% 107 30.1 1019.1
14 13:53 E 17 G 24 10.00 Partly Cloudy FEW029 SCT036 SCT070 93 75.9 93.9 82.9 58% 106 30.11 1019.4
14 12:53 E 16 G 24 10.00 A Few Clouds FEW075 93 78.1 62% 109 30.13 1020.1
14 11:53 E 14 10.00 Mostly Cloudy SCT027 BKN041 91 79 68% 108 30.13 1020.2
14 10:53 E 13 10.00 Mostly Cloudy SCT028 BKN035 90 77 66% 103 30.12 1020.0
14 09:53 SE 13 10.00 Mostly Cloudy FEW026 SCT036 BKN045 87.1 78.1 75% 100 30.12 1019.9
14 08:53 E 8 10.00 NULL NULL 86 79 80% 100 30.12 1020.0
14 07:53 Calm 10.00 Partly Cloudy SCT016 SCT022 82.9 79 84 78.1 88% 94 30.12 1019.9
14 06:53 Calm 10.00 A Few Clouds FEW024 FEW028 80.1 78.1 94% 86 30.11 1019.5
14 05:53 Calm 10.00 Fair CLR 78.1 77 97% 81 30.1 1019.2
14 04:53 Calm 10.00 A Few Clouds FEW045 79 77 94% 83 30.1 1019.2
14 03:53 W 7 10.00 Mostly Cloudy SCT021 BKN028 79 77 94% 83 30.11 1019.4
14 02:53 W 5 10.00 Light Rain SCT020 79 77 94% 83 30.1 1019.2
14 01:53 Calm 10.00 Partly Cloudy FEW020 SCT030 82 78.1 84.9 81 88% 91 30.14 1020.5
14 00:53 E 6 10.00 Fair CLR 84 80.1 88% 97 30.17 1021.4
13 23:53 E 7 10.00 Fair CLR 82 79 90% 92 30.16 1021.4
13 22:53 E 6 10.00 Partly Cloudy FEW023 SCT032 84 79 85% 96 30.16 1021.2
13 21:53 E 6 10.00 A Few Clouds FEW070 FEW080 84 79 85% 96 30.16 1021.1
13 20:53 E 6 10.00 Fair CLR 84 79 85% 96 30.16 1021.3
13 19:53 Calm 10.00 A Few Clouds FEW020 84.9 78.1 88 82.9 80% 97 30.15 1020.8 0.01
13 18:53 E 8 10.00 Partly Cloudy SCT022 86 78.1 77% 98 30.14 1020.6
13 17:53 E 9 10.00 Partly Cloudy SCT022 87.1 79 77% 101 30.13 1020.0
13 16:53 Vrbl 5 10.00 Partly Cloudy FEW024 FEW037 SCT049 84.9 80.1 85% 99 30.11 1019.7 0.01 0.01
13 15:53 S 6 10.00 Mostly Cloudy SCT021 BKN028 BKN033 86 80.1 83% 101 30.15 1020.7
13 14:53 SE 7 10.00 A Few Clouds FEW022 88 79 75% 103 30.14 1020.6
13 13:53 S 7 10.00 Mostly Cloudy FEW028 SCT046 BKN070 84.9 77 91.9 81 77% 95 30.17 1021.5
13 11:53 E 12 10.00 A Few Clouds FEW034 90 77 66% 103 30.18 1021.9
13 10:53 E 12 10.00 Fair CLR 91 75.9 61% 103 30.17 1021.6
13 09:53 E 13 10.00 Partly Cloudy SCT024 SCT032 88 78.1 73% 102 30.18 1022.0
13 08:53 NE 10 10.00 A Few Clouds FEW027 86 77 75% 97 30.19 1022.1
13 07:53 NE 5 10.00 Fair CLR 81 75 81 75 82% 87 30.17 1021.7
13 06:53 NE 6 10.00 Fair CLR 78.1 73 85% 81 30.16 1021.3
13 05:53 NE 5 10.00 Fair CLR 78.1 73.9 87% 81 30.15 1020.7
13 04:53 Calm 10.00 Fair CLR 75.9 73.9 94% 75 30.13 1020.3
13 03:53 Calm 10.00 Fair CLR 77 75 94% 78 30.13 1020.1
13 02:53 Calm 10.00 Fair CLR 78.1 73.9 87% 81 30.13 1020.2
13 01:53 Calm 10.00 Fair CLR 79 73.9 82.9 77 85% 83 30.15 1020.9
12 23:53 NE 3 10.00 Fair CLR 80.1 73.9 82% 85 30.18 1021.7
12 22:53 N 7 10.00 Fair CLR 81 75 82% 87 30.17 1021.5
12 21:53 Calm 10.00 Fair CLR 81 77 88% 88 30.16 1021.3
12 20:53 Calm 10.00 Fair CLR 81 75.9 85% 87 30.16 1021.1
12 19:53 Calm 10.00 Light Rain CLR 82.9 75.9 90 79 79% 91 30.15 1020.9 0.1
12 18:53 Calm 10.00 Fair CLR 82 75.9 82% 89 30.12 1019.9
12 17:53 W 3 10.00 A Few Clouds FEW110 82 75 79% 89 30.11 1019.4 0.01
12 16:53 SW 5 10.00 Mostly Cloudy FEW047 SCT100 BKN110 80.1 75 85% 85 30.1 1019.0 0.09
12 15:53 SW 7 10.00 Fair CLR 79 75 88% 83 30.1 1019.3 0.07
12 14:53 SW 13 6.00 Rain Fog/Mist SCT036 BKN048 OVC110 79 75.9 90% 83 30.11 1019.6 0.02
12 13:53 SE 7 10.00 Mostly Cloudy SCT046 BKN060 BKN080 89.1 72 91 78.1 57% 96 30.12 1019.7
12 12:53 S 6 10.00 Overcast BKN044 OVC050 89.1 72 57% 96 30.12 1020.0
12 11:53 Calm 10.00 Mostly Cloudy BKN040 88 72 59% 95 30.13 1020.2
12 10:53 W 6 10.00 Mostly Cloudy FEW040 BKN100 86 72 63% 92 30.13 1020.3
12 09:53 NW 6 10.00 Fair CLR 82.9 72 70% 88 30.12 1019.7
12 08:53 S 3 10.00 A Few Clouds FEW100 80.1 72 76% 84 30.1 1019.2
12 07:53 Calm 10.00 Fair CLR 78.1 73 81 75 85% 81 30.07 1018.1
12 06:53 NW 6 10.00 A Few Clouds FEW110 75.9 73 91% 76 30.05 1017.6
12 05:53 N 5 10.00 Mostly Cloudy FEW080 BKN100 78.1 73 85% 81 30.04 1017.3
12 04:53 W 3 10.00 A Few Clouds FEW100 75.9 73.9 94% 75 30.02 1016.6
12 03:53 Calm 10.00 Fair CLR 79 73.9 85% 83 30 1016.0
12 02:53 Calm 10.00 Fair CLR 78.1 73.9 87% 81 30.02 1016.4
12 01:53 Calm 10.00 Mostly Cloudy BKN120 80.1 73.9 81 79 82% 85 30.05 1017.3
12 00:53 SE 5 10.00 Fair CLR 80.1 73.9 82% 85 30.05 1017.6
11 23:53 S 6 10.00 Partly Cloudy SCT110 80.1 72 76% 84 30.05 1017.6
11 22:53 S 5 10.00 Overcast OVC110 80.1 73 79% 84 30.04 1017.2
11 21:53 S 5 10.00 Mostly Cloudy BKN100 80.1 73 79% 84 30.03 1017.0
Date Time (edt) Wind (mph) Vis. (mi.) Weather Sky Cond. Air Dwpt Max. Min. Relative Humidity Wind Chill (°F) Heat Index (°F) altimeter (in) sea level (mb) 1 hr 3 hr 6 hr
6 hour
Temperature (ºF) Pressure Precipitation (in)